Total_Precipitation_Accumulation
0.02 0.02 0.02 0.06 0.10 0.14 0.18 0.19 0.20 0.19 0.18 0.15 0.14 0.14 0.12 0.12 0.14 0.16 0.19 0.21 0.24 0.30 0.37 0.42 0.47 0.54 0.61 0.63 0.68 0.69 0.72 0.83 0.77 0.66 0.76 0.84 0.75 0.56 0.46 0.45 0.45 0.41 0.36
0.02 0.02 0.01 0.01 0.03 0.06 0.11 0.14 0.16 0.16 0.15 0.15 0.14 0.13 0.10 0.10 0.13 0.18 0.20 0.21 0.24 0.27 0.34 0.44 0.48 0.50 0.55 0.63 0.75 0.78 0.80 0.92 0.91 0.77 0.85 0.94 0.84 0.71 0.56 0.48 0.38 0.35 0.34
0.01 0.01 0.01 0.01 0.01 0.02 0.05 0.08 0.11 0.13 0.14 0.14 0.14 0.13 0.11 0.09 0.10 0.13 0.17 0.21 0.26 0.28 0.32 0.40 0.48 0.56 0.58 0.63 0.72 0.77 0.84 0.99 1.03 0.96 0.95 1.06 1.09 0.87 0.64 0.47 0.36 0.33 0.31
0.01 0.01 0.01 0.02 0.02 0.02 0.02 0.04 0.06 0.09 0.12 0.14 0.15 0.15 0.14 0.12 0.09 0.09 0.11 0.14 0.19 0.25 0.33 0.37 0.42 0.52 0.61 0.65 0.73 0.84 0.93 1.02 1.10 1.09 1.12 1.23 1.23 1.09 0.83 0.55 0.43 0.35 0.31
0.05 0.05 0.06 0.06 0.06 0.05 0.05 0.05 0.06 0.08 0.11 0.15 0.17 0.17 0.17 0.15 0.09 0.09 0.12 0.12 0.14 0.17 0.24 0.31 0.32 0.37 0.47 0.59 0.67 0.78 0.94 1.09 1.25 1.31 1.33 1.49 1.45 1.24 0.97 0.67 0.54 0.43 0.36
0.05 0.05 0.05 0.05 0.05 0.06 0.06 0.06 0.07 0.10 0.15 0.20 0.21 0.22 0.21 0.14 0.10 0.09 0.10 0.12 0.15 0.17 0.21 0.26 0.27 0.28 0.31 0.38 0.48 0.62 0.77 0.93 1.14 1.32 1.45 1.55 1.59 1.44 1.23 0.99 0.68 0.46 0.38
0.03 0.03 0.03 0.05 0.05 0.07 0.07 0.08 0.10 0.14 0.19 0.24 0.26 0.28 0.27 0.27 0.19 0.13 0.09 0.12 0.15 0.19 0.22 0.24 0.20 0.17 0.24 0.28 0.32 0.40 0.51 0.63 0.79 1.00 1.20 1.30 1.47 1.57 1.41 1.13 0.84 0.62 0.46
0.02 0.03 0.04 0.06 0.08 0.09 0.13 0.15 0.19 0.22 0.24 0.27 0.28 0.31 0.34 0.32 0.24 0.16 0.13 0.14 0.18 0.20 0.23 0.25 0.24 0.22 0.23 0.28 0.32 0.31 0.32 0.37 0.46 0.58 0.76 1.00 1.21 1.41 1.43 1.32 1.20 0.95 0.71
0.03 0.05 0.06 0.09 0.11 0.14 0.16 0.22 0.29 0.32 0.31 0.35 0.38 0.39 0.42 0.41 0.31 0.19 0.15 0.18 0.24 0.24 0.25 0.27 0.30 0.26 0.21 0.21 0.28 0.30 0.29 0.28 0.30 0.39 0.53 0.75 1.00 1.18 1.35 1.33 1.21 1.06 0.84
0.07 0.08 0.10 0.14 0.19 0.21 0.24 0.29 0.33 0.38 0.39 0.41 0.44 0.49 0.53 0.53 0.42 0.24 0.19 0.22 0.29 0.32 0.36 0.37 0.34 0.30 0.26 0.19 0.23 0.27 0.25 0.25 0.27 0.28 0.35 0.49 0.65 0.91 1.11 1.12 1.03 0.94 0.80
0.11 0.11 0.13 0.17 0.23 0.25 0.32 0.36 0.38 0.40 0.42 0.46 0.49 0.54 0.62 0.65 0.53 0.28 0.21 0.27 0.34 0.40 0.41 0.41 0.41 0.34 0.27 0.21 0.21 0.25 0.23 0.26 0.32 0.33 0.34 0.42 0.55 0.72 0.92 1.02 1.00 0.86 0.73
0.13 0.14 0.14 0.17 0.18 0.21 0.31 0.35 0.39 0.46 0.49 0.51 0.58 0.65 0.71 0.74 0.65 0.43 0.24 0.24 0.36 0.47 0.52 0.53 0.52 0.44 0.35 0.29 0.23 0.21 0.21 0.23 0.33 0.38 0.39 0.41 0.48 0.57 0.73 0.94 1.05 0.98 0.80
0.16 0.16 0.17 0.18 0.22 0.27 0.33 0.34 0.36 0.40 0.41 0.46 0.62 0.76 0.83 0.84 0.74 0.52 0.33 0.24 0.30 0.43 0.54 0.65 0.65 0.53 0.47 0.41 0.33 0.25 0.23 0.23 0.29 0.36 0.34 0.36 0.40 0.48 0.63 0.88 1.08 1.18 1.08
0.20 0.19 0.20 0.22 0.24 0.28 0.36 0.38 0.37 0.37 0.37 0.43 0.60 0.75 0.84 0.84 0.76 0.57 0.42 0.33 0.33 0.41 0.48 0.60 0.68 0.69 0.65 0.59 0.49 0.36 0.27 0.28 0.29 0.34 0.38 0.41 0.48 0.55 0.65 0.72 0.90 1.05 1.11
0.24 0.23 0.23 0.26 0.28 0.29 0.35 0.38 0.33 0.34 0.30 0.31 0.48 0.70 0.77 0.72 0.59 0.46 0.41 0.42 0.41 0.45 0.53 0.71 0.85 0.88 0.88 0.81 0.67 0.53 0.41 0.37 0.35 0.38 0.45 0.48 0.52 0.54 0.58 0.60 0.70 0.82 0.82
0.30 0.27 0.26 0.27 0.28 0.30 0.34 0.34 0.26 0.19 0.16 0.14 0.19 0.34 0.47 0.42 0.34 0.31 0.29 0.30 0.29 0.31 0.43 0.69 0.95 1.03 1.04 1.00 0.87 0.68 0.54 0.47 0.43 0.43 0.46 0.48 0.48 0.52 0.55 0.58 0.61 0.69 0.70
0.34 0.31 0.29 0.27 0.27 0.27 0.29 0.34 0.38 0.33 0.18 0.13 0.11 0.14 0.19 0.20 0.23 0.30 0.31 0.25 0.21 0.20 0.30 0.51 0.77 0.96 1.03 1.04 0.95 0.78 0.62 0.55 0.55 0.51 0.50 0.49 0.46 0.46 0.51 0.57 0.58 0.62 0.67
0.30 0.29 0.27 0.25 0.25 0.26 0.29 0.33 0.35 0.42 0.42 0.33 0.19 0.12 0.11 0.11 0.16 0.32 0.40 0.29 0.21 0.19 0.24 0.37 0.59 0.84 0.93 0.96 0.93 0.84 0.73 0.68 0.65 0.60 0.56 0.53 0.49 0.46 0.45 0.49 0.51 0.53 0.57
0.29 0.25 0.21 0.20 0.22 0.25 0.30 0.31 0.32 0.38 0.48 0.55 0.48 0.23 0.13 0.13 0.17 0.38 0.51 0.36 0.27 0.26 0.25 0.30 0.44 0.65 0.79 0.86 0.85 0.80 0.74 0.71 0.69 0.65 0.61 0.57 0.52 0.50 0.46 0.43 0.45 0.50 0.51
0.24 0.20 0.15 0.15 0.18 0.24 0.27 0.27 0.31 0.41 0.51 0.62 0.62 0.36 0.18 0.17 0.24 0.47 0.59 0.45 0.36 0.34 0.29 0.29 0.36 0.51 0.65 0.76 0.77 0.72 0.72 0.71 0.70 0.66 0.63 0.59 0.52 0.50 0.49 0.44 0.42 0.43 0.42
0.23 0.19 0.14 0.13 0.18 0.21 0.24 0.28 0.33 0.43 0.54 0.62 0.56 0.30 0.17 0.19 0.30 0.48 0.61 0.49 0.39 0.38 0.35 0.32 0.35 0.46 0.55 0.64 0.64 0.61 0.63 0.68 0.66 0.63 0.59 0.57 0.53 0.50 0.49 0.48 0.42 0.41 0.41
0.20 0.17 0.15 0.16 0.19 0.21 0.22 0.29 0.35 0.47 0.57 0.61 0.48 0.26 0.18 0.24 0.33 0.45 0.49 0.43 0.38 0.35 0.33 0.33 0.36 0.44 0.48 0.51 0.51 0.52 0.57 0.61 0.60 0.57 0.56 0.55 0.52 0.49 0.49 0.48 0.45 0.45 0.45
0.19 0.17 0.16 0.16 0.18 0.15 0.19 0.28 0.32 0.39 0.50 0.53 0.41 0.30 0.27 0.33 0.35 0.40 0.44 0.42 0.39 0.36 0.34 0.36 0.39 0.42 0.44 0.43 0.39 0.42 0.48 0.51 0.49 0.49 0.51 0.51 0.50 0.49 0.47 0.44 0.43 0.43 0.42
0.18 0.17 0.15 0.15 0.14 0.15 0.18 0.22 0.24 0.28 0.37 0.40 0.34 0.32 0.33 0.36 0.36 0.36 0.38 0.38 0.38 0.38 0.37 0.37 0.37 0.40 0.42 0.42 0.40 0.40 0.41 0.43 0.44 0.46 0.46 0.46 0.45 0.46 0.44 0.40 0.39 0.40 0.41
0.19 0.18 0.16 0.15 0.14 0.14 0.16 0.19 0.24 0.27 0.29 0.28 0.28 0.31 0.35 0.37 0.36 0.36 0.35 0.36 0.36 0.36 0.35 0.37 0.38 0.39 0.39 0.37 0.35 0.34 0.33 0.33 0.38 0.44 0.46 0.46 0.44 0.44 0.42 0.38 0.39 0.42 0.43
0.18 0.22 0.21 0.20 0.19 0.17 0.17 0.19 0.24 0.24 0.20 0.19 0.22 0.29 0.35 0.37 0.37 0.36 0.33 0.32 0.34 0.36 0.36 0.37 0.36 0.37 0.36 0.33 0.30 0.30 0.30 0.30 0.34 0.40 0.41 0.45 0.45 0.43 0.42 0.42 0.41 0.43 0.43